SCP
0 0 0 0 0 0 0 0 0 0 0 0 0 0 0 0 0 0 0 0 0 0 0 0 0 0 0 0 0 0 0 0 0 0 0 0 0 0 0 0 0 0 0
0 0 0 0 0 0 0 0 0 0 0 0 0 0 0 0 0 0 0 0 0 0 0 0 0 0 0 0 0 0 0 0 0 0 0 0 0 0 0 0 0 0 0
0 0 0 0 0 0 0 0 0 0 0 0 0 0 0 0 0 0 0 0 0 0 0 0 0 0 0 0 0 0 0 0 0 0 0 0 0 0 0 0 0 0 0
0 0 0 0 0 0 0 0 0 0 0 0 0 0 0 0 0 0 0 0 0 0 0 0 0 0 0 0 0 0 0 0 0 0 0 0 0 0 0 0 0 0 0
0 0 0 0 0 0 0 0 0 0 0 0 0 0 0 0 0 0 0 0 0 0 0 0 0 0 0 0 0 0 0 0 0 0 0 0 0 0 0 0 0 0 0
0 0 0 0 0 0 0 0 0 0 0 0 0 0 0 0 0 0 0 0 0 0 0 0 0 0 0 0 0 0 0 0 0 0 0 0 0 0 0 0 0 0 0
0 0 0 0 0 0 0 0 0 0 0 0 0 0 0 0 0 0 0 0 0 0 0 0 0 0 0 0 0 0 0 0 0 0 0 0 0 0 0 0 0 0 0
0 0 0 0 0 0 0 0 0 0 0 0 0 0 0 0 0 0 0 0 0 0 0 0 0 0 0 0 0 0 0 0 0 0 0 0 0 0 0 0 0 0 0
0 0 0 0 0 0 0 0 0 0 0 0 0 0 0 0 0 0 0 0 0 0 0 0 0 0 0 0 0 0 0 0 0 0 0 0 0 0 0 0 0 0 0
0 0 0 0 0 0 0 0 0 0 0 0 0 0 0 0 0 0 0 0 0 0 0 0 0 0 0 0 0 0 0 0 0 0 0 0 0 0 0 0 0 0 0
0 0 0 0 0 0 0 0 0 0 0 0 0 0 0 0 0 0 0 0 0 0 0 0 0 0 0 0 0 0 0 0 0 0 0 0 0 0 0 0 0 0 0
0 0 0 0 0 0 0 0 0 0 0 0 0 0 0 0 -0 -0 -0 0 0 0 0 0 0 0 0 0 0 0 0 0 0 0 0 0 0 0 0 0 0 0 0
0 0 0 0 0 0 0 0 0 0 0 0 0 0 0 0 0 -0 -0 0 0 0 0 0 0 0 0 0 0 0 0 0 0 0 0 0 0 0 0 0 0 0 0
0 0 0 0 0 0 0 0 0 0 0 0 0 0 0 0 0 0 0 0 0 0 0 0 0 0 0 0 0 0 0 0 0 0 0 0 0 0 0 0 0 0 0
0 0 0 0 0 0 0 0 0 0 0 0 0 0 0 0 0 0 0 0 0 0 0 0 0 0 0 0 0 0 0 0 0 0 0 0 0 0 0 0 0 0 0
0 0 0 0 0 0 0 0 0 0 0 0 0 0 0 0 0 0 0 0 0 0 0 0 0 0 0 0 0 0 0 0 0 0 0 0 0 0 0 0 0 0 0
0 0 0 0 0 0 0 0 0 0 0 0 0 0 0 0 0 0 0 0 0 0 0 0 0 0 0 0 0 0 0 0 0 0 0 0 0 0 0 0 0 0 0
0 0 0 0 0 0 0 0 0 0 0 0 0 0 0 0 0 0 0 0 0 0 0 0 0 0 0 0 0 0 0 0 0 0 0 0 0 0 0 0 0 0 0
0 0 0 0 0 0 0 0 0 0 0 0 0 0 0 0 0 0 0 0 0 0 0 0 0 0 0 0 0 0 0 0 0 0 0 0 0 0 0 -0 0 0 0
0 0 0 0 0 0 0 0 0 0 0 0 0 0 0 0 0 0 0 0 0 0 0 0 0 0 0 0 0 0 0 0 0 0 0 0 0 0 0 0 0 0 0
0 0 0 0 0 0 0 0 0 0 0 0 0 0 0 0 0 0 0 0 0 0 0 0 0 0 0 0 0 0 0 0 0 0 0 0 0 0 0 0 0 0 0
0 0 0 0 0 0 0 0 0 0 0 0 0 0 0 0 0 0 0 0 0 0 0 0 0 0 0 0 0 0 0 0 0 0 0 0 0 0 0 0 0 0 0
0 0 0 0 0 0 0 0 0 0 0 0 0 0 0 0 0 0 0 0 0 0 0 0 0 0 0 0 0 0 0 0 0 0 0 0 0 0 0 0 0 0 0
0 0 0 0 0 0 0 0 0 0 0 0 0 0 0 0 0 0 0 0 0 0 0 0 0 0 0 0 0 0 0 0 0 0 0 0 0 0 0 0 0 0 0
0 0 0 0 0 0 0 0 0 0 0 0 0 0 0 0 0 0 0 0 0 0 0 0 0 0 0 0 0 0 0 0 0 0 0 0 0 0 0 0 0 0 0
0 0 0 0 0 0 0 0 0 0 0 0 0 0 0 0 0 0 0 0 0 0 0 0 0 0 0 0 0 0 0 0 0 0 0 0 0 0 0 0 0 0 0
Wind_Speed_500mb
17 12 11 12 14 17 21 23 26 30 33 34 36 38 39 40 42 43 43 46 48 51 53 55 59 60 64 65 67 68 72 68 81 113 90 85 84 86 90 94 104 112 112
18 13 11 13 18 22 26 29 30 31 32 34 35 36 38 40 41 43 45 47 50 51 54 57 57 58 59 58 60 61 61 62 65 93 103 89 82 81 87 90 94 101 110
20 15 15 18 23 28 30 30 31 34 37 39 40 41 43 45 45 45 46 50 53 55 56 56 55 57 58 57 57 61 63 65 70 82 103 100 101 92 89 89 93 96 101
29 25 24 27 29 32 32 32 33 38 42 44 44 43 43 44 45 47 50 53 57 58 59 58 56 55 55 55 55 58 62 69 73 84 99 106 103 107 104 103 104 89 106
40 34 34 38 39 40 40 38 39 38 40 41 43 44 44 46 46 49 53 56 59 61 62 60 58 55 51 50 55 58 61 68 73 85 97 103 113 112 96 95 99 105 109
50 44 43 49 51 50 48 46 44 40 39 40 41 43 44 45 44 47 51 56 58 60 62 60 61 58 53 50 52 57 58 66 74 79 91 98 116 106 104 98 95 99 109
64 65 58 56 61 59 55 51 45 40 39 39 40 42 43 44 43 46 51 55 56 58 61 62 64 61 57 57 60 63 67 67 67 72 89 93 101 100 101 109 102 98 116
72 76 76 71 70 66 61 54 47 42 40 40 41 43 45 45 45 48 53 57 58 58 60 61 64 62 55 54 63 71 74 75 72 76 82 93 93 100 97 104 115 117 131
71 75 76 75 74 71 63 56 49 43 41 42 43 45 48 48 49 51 54 57 58 59 60 62 61 58 51 47 59 71 77 80 80 83 86 92 96 98 92 94 118 103 120
57 58 61 66 72 71 63 58 51 45 41 42 44 46 49 52 52 53 53 56 60 57 59 62 61 57 48 47 55 65 81 84 83 90 94 96 94 92 89 81 92 108 109
55 55 56 61 69 68 65 59 52 45 43 42 46 48 52 55 55 54 45 47 53 58 62 65 64 56 54 57 57 61 71 78 86 89 99 99 94 93 94 88 84 96 111
55 55 58 62 68 69 65 59 51 46 45 44 49 54 57 55 56 54 54 46 45 54 64 66 66 63 60 62 62 61 66 72 81 88 93 94 91 94 93 88 83 81 90
57 56 56 60 65 65 61 56 50 47 48 50 54 58 63 64 62 60 57 57 53 55 62 64 66 64 63 64 60 67 69 71 76 81 86 85 84 88 90 89 83 74 62
55 54 57 62 64 62 59 53 50 49 51 54 55 58 61 63 63 63 64 63 63 60 64 73 72 66 67 66 66 69 66 67 71 72 76 78 83 84 84 82 80 72 63
50 53 57 58 58 56 54 52 53 52 54 55 57 61 67 73 72 71 65 61 58 60 65 73 74 75 74 74 73 68 63 63 63 61 64 72 75 76 73 71 63 60 52
51 53 54 54 52 50 50 51 53 55 57 58 60 65 71 74 71 67 61 58 58 59 66 70 68 72 75 74 72 70 60 57 54 56 57 62 62 63 63 56 45 37 23
44 46 49 50 47 46 49 52 55 55 57 58 56 66 68 72 69 67 64 64 64 59 59 64 63 65 68 66 63 58 57 48 44 43 45 48 49 48 47 39 31 20 6
39 42 44 45 46 43 46 49 53 57 60 62 62 60 59 60 61 58 59 58 58 55 50 54 56 53 53 52 48 44 42 37 35 34 34 34 34 34 32 21 19 10 8
37 40 44 46 47 44 44 47 49 53 58 65 66 63 58 55 52 50 51 51 54 51 44 44 42 38 34 32 30 28 27 28 29 28 28 27 24 21 22 13 18 10 8
39 41 44 47 48 48 48 52 54 56 58 60 63 60 55 51 44 41 43 43 40 37 30 29 26 21 19 17 17 19 20 21 24 25 24 21 19 18 19 20 25 30 25
43 42 42 43 42 43 45 46 48 51 51 48 42 40 37 37 36 36 35 32 26 23 19 15 13 12 11 13 15 17 20 21 21 20 18 16 14 13 16 19 24 29 36
41 42 43 44 44 43 43 43 41 36 33 32 28 28 28 26 25 22 19 17 14 12 11 10 10 13 15 15 17 18 19 18 16 14 15 15 13 11 13 17 21 22 26
36 35 34 35 33 31 29 28 26 21 20 19 15 15 14 12 9 8 10 11 12 11 10 11 15 16 17 18 18 17 17 16 15 14 13 12 13 14 15 17 19 19 19
23 21 19 18 16 14 12 11 10 8 7 6 7 7 9 9 9 10 12 12 12 13 13 14 15 17 17 17 17 17 17 17 13 13 11 9 8 11 10 12 14 15 17
8 5 3 2 1 3 3 6 8 11 14 17 17 16 16 14 14 13 14 13 13 14 15 16 17 18 19 20 19 19 17 17 15 13 11 12 11 12 13 13 14 17 19
9 11 12 13 14 16 18 19 20 21 20 20 18 18 18 16 15 15 15 14 14 15 16 16 17 17 18 18 19 18 17 16 15 11 6 1 4 8 12 13 14 16 19
Wind_Direction_500mb
179 192 209 229 243 253 259 263 267 271 273 273 274 274 274 273 273 274 275 277 279 282 284 287 288 290 288 289 289 287 284 281 282 291 290 292 291 289 286 283 283 283 283
194 209 234 258 266 270 272 275 277 280 282 283 281 280 278 278 279 281 280 280 283 284 287 288 291 293 294 296 296 294 291 291 285 288 296 295 292 288 283 283 281 278 277
218 238 261 269 272 270 270 275 281 284 283 282 281 282 281 281 281 281 281 282 283 283 284 285 288 290 293 296 297 297 297 297 299 298 301 303 303 303 303 295 286 282 278
231 242 262 268 271 269 269 273 277 277 278 280 283 285 286 285 285 286 287 287 286 285 283 282 283 285 289 290 291 291 293 294 297 298 300 303 304 307 305 302 299 295 278
238 248 262 265 266 266 263 264 271 273 276 280 284 287 289 290 290 289 288 286 285 285 285 284 283 284 284 285 288 292 293 293 294 296 298 300 301 303 297 297 288 290 288
249 253 261 264 260 259 259 263 266 272 280 284 285 285 285 286 287 288 287 287 287 287 289 291 292 293 295 292 290 287 285 289 291 292 292 292 299 298 299 292 288 285 284
259 255 253 260 257 254 253 258 263 271 280 283 284 286 288 290 292 290 289 289 289 291 293 295 295 295 296 299 299 297 294 292 290 291 294 296 300 305 306 296 287 281 276
260 259 257 257 254 249 249 254 261 268 277 281 283 286 290 294 296 295 294 293 292 291 291 293 294 298 300 299 300 299 298 297 300 302 301 303 305 310 300 295 292 283 277
258 256 255 252 248 245 246 249 256 263 272 279 285 290 295 298 299 298 295 290 288 289 291 293 298 300 302 300 300 303 303 300 307 307 306 307 311 312 308 300 290 282 279
262 264 259 248 241 241 243 245 250 257 267 277 286 292 296 300 300 299 296 291 290 292 293 296 300 303 306 305 303 306 305 309 311 308 309 311 312 313 315 306 298 284 277
267 264 254 243 239 238 239 241 246 254 264 278 289 295 301 303 302 301 297 288 294 295 295 299 301 305 305 305 307 304 307 311 309 310 311 314 319 321 320 315 305 292 275
263 259 248 238 233 233 234 238 245 255 268 283 292 298 303 306 310 312 310 300 299 297 298 298 299 306 307 304 305 308 311 310 309 311 313 318 321 322 322 318 310 293 284
262 257 244 234 232 234 237 243 251 260 272 282 291 302 310 313 310 310 308 302 296 296 299 298 294 300 303 305 307 310 310 310 311 313 315 318 322 323 324 324 322 314 295
260 247 234 228 228 232 238 245 254 265 276 284 294 302 306 310 310 309 305 302 302 301 303 304 303 304 305 306 308 310 311 312 313 315 317 320 324 327 328 326 321 321 313
248 238 233 230 232 238 247 255 262 270 279 288 296 301 305 303 303 301 300 302 303 297 301 300 307 309 308 309 311 312 312 313 315 317 319 321 324 326 328 327 323 328 317
236 233 234 236 239 246 256 264 270 276 281 287 296 299 298 298 299 298 294 293 290 295 296 299 304 308 308 310 311 313 317 318 319 320 323 321 323 325 329 326 325 332 328
235 237 238 241 244 250 259 269 276 281 285 287 291 293 295 296 295 297 298 297 298 296 297 299 303 308 309 310 312 315 319 323 323 324 327 324 323 326 331 327 339 336 22
243 249 254 259 260 262 270 277 283 289 291 294 297 298 297 295 295 297 295 299 300 294 296 300 304 307 310 312 316 321 325 331 336 341 345 339 334 337 343 337 10 22 93
264 266 269 271 274 276 278 284 288 293 299 301 301 301 300 299 300 299 302 301 298 297 303 302 306 312 314 317 321 330 339 346 350 359 7 13 14 16 34 30 55 56 104
258 262 266 271 275 279 283 287 291 294 295 298 299 301 304 306 308 305 302 301 301 305 311 311 312 315 322 327 337 347 350 353 356 3 11 19 41 57 70 78 81 92 100
271 273 275 277 279 282 288 289 288 286 290 292 298 303 305 311 313 311 308 305 310 318 324 321 319 315 320 327 333 339 340 347 352 360 1 17 32 43 58 69 76 86 96
275 280 284 286 286 287 284 286 286 291 293 298 301 303 304 311 311 313 317 324 339 349 346 339 331 331 334 336 335 335 340 344 346 358 15 19 24 46 65 73 79 80 92
270 269 272 275 278 280 282 286 287 288 293 294 307 314 323 332 336 357 15 10 7 6 2 349 335 333 332 338 340 343 344 351 359 6 11 23 34 48 55 65 74 82 95
261 265 269 272 277 283 283 286 304 312 308 355 25 47 55 52 44 38 38 25 5 354 1 357 354 353 355 360 357 3 1 358 3 21 22 29 61 79 92 94 102 108 115
254 249 249 269 352 39 70 85 91 89 80 82 79 77 72 59 48 44 43 35 22 14 16 14 9 7 5 3 0 4 15 16 14 16 44 58 72 73 84 92 96 103 112
109 108 108 109 112 112 105 100 97 92 89 87 85 79 73 67 60 53 48 40 31 24 24 23 20 16 12 11 8 360 349 345 340 339 348 333 97 115 102 89 93 108 114
Wind_Speed_850mb
17 12 11 12 14 17 21 23 26 30 33 34 36 38 39 40 42 43 43 46 48 51 53 55 59 60 64 65 67 68 72 68 81 113 90 85 84 86 90 94 104 112 112
18 13 11 13 18 22 26 29 30 31 32 34 35 36 38 40 41 43 45 47 50 51 54 57 57 58 59 58 60 61 61 62 65 93 103 89 82 81 87 90 94 101 110
20 15 15 18 23 28 30 30 31 34 37 39 40 41 43 45 45 45 46 50 53 55 56 56 55 57 58 57 57 61 63 65 70 82 103 100 101 92 89 89 93 96 101
29 25 24 27 29 32 32 32 33 38 42 44 44 43 43 44 45 47 50 53 57 58 59 58 56 55 55 55 55 58 62 69 73 84 99 106 103 107 104 103 104 89 106
40 34 34 38 39 40 40 38 39 38 40 41 43 44 44 46 46 49 53 56 59 61 62 60 58 55 51 50 55 58 61 68 73 85 97 103 113 112 96 95 99 105 109
50 44 43 49 51 50 48 46 44 40 39 40 41 43 44 45 44 47 51 56 58 60 62 60 61 58 53 50 52 57 58 66 74 79 91 98 116 106 104 98 95 99 109
64 65 58 56 61 59 55 51 45 40 39 39 40 42 43 44 43 46 51 55 56 58 61 62 64 61 57 57 60 63 67 67 67 72 89 93 101 100 101 109 102 98 116
72 76 76 71 70 66 61 54 47 42 40 40 41 43 45 45 45 48 53 57 58 58 60 61 64 62 55 54 63 71 74 75 72 76 82 93 93 100 97 104 115 117 131
71 75 76 75 74 71 63 56 49 43 41 42 43 45 48 48 49 51 54 57 58 59 60 62 61 58 51 47 59 71 77 80 80 83 86 92 96 98 92 94 118 103 120
57 58 61 66 72 71 63 58 51 45 41 42 44 46 49 52 52 53 53 56 60 57 59 62 61 57 48 47 55 65 81 84 83 90 94 96 94 92 89 81 92 108 109
55 55 56 61 69 68 65 59 52 45 43 42 46 48 52 55 55 54 45 47 53 58 62 65 64 56 54 57 57 61 71 78 86 89 99 99 94 93 94 88 84 96 111
55 55 58 62 68 69 65 59 51 46 45 44 49 54 57 55 56 54 54 46 45 54 64 66 66 63 60 62 62 61 66 72 81 88 93 94 91 94 93 88 83 81 90
57 56 56 60 65 65 61 56 50 47 48 50 54 58 63 64 62 60 57 57 53 55 62 64 66 64 63 64 60 67 69 71 76 81 86 85 84 88 90 89 83 74 62
55 54 57 62 64 62 59 53 50 49 51 54 55 58 61 63 63 63 64 63 63 60 64 73 72 66 67 66 66 69 66 67 71 72 76 78 83 84 84 82 80 72 63
50 53 57 58 58 56 54 52 53 52 54 55 57 61 67 73 72 71 65 61 58 60 65 73 74 75 74 74 73 68 63 63 63 61 64 72 75 76 73 71 63 60 52
51 53 54 54 52 50 50 51 53 55 57 58 60 65 71 74 71 67 61 58 58 59 66 70 68 72 75 74 72 70 60 57 54 56 57 62 62 63 63 56 45 37 23
44 46 49 50 47 46 49 52 55 55 57 58 56 66 68 72 69 67 64 64 64 59 59 64 63 65 68 66 63 58 57 48 44 43 45 48 49 48 47 39 31 20 6
39 42 44 45 46 43 46 49 53 57 60 62 62 60 59 60 61 58 59 58 58 55 50 54 56 53 53 52 48 44 42 37 35 34 34 34 34 34 32 21 19 10 8
37 40 44 46 47 44 44 47 49 53 58 65 66 63 58 55 52 50 51 51 54 51 44 44 42 38 34 32 30 28 27 28 29 28 28 27 24 21 22 13 18 10 8
39 41 44 47 48 48 48 52 54 56 58 60 63 60 55 51 44 41 43 43 40 37 30 29 26 21 19 17 17 19 20 21 24 25 24 21 19 18 19 20 25 30 25
43 42 42 43 42 43 45 46 48 51 51 48 42 40 37 37 36 36 35 32 26 23 19 15 13 12 11 13 15 17 20 21 21 20 18 16 14 13 16 19 24 29 36
41 42 43 44 44 43 43 43 41 36 33 32 28 28 28 26 25 22 19 17 14 12 11 10 10 13 15 15 17 18 19 18 16 14 15 15 13 11 13 17 21 22 26
36 35 34 35 33 31 29 28 26 21 20 19 15 15 14 12 9 8 10 11 12 11 10 11 15 16 17 18 18 17 17 16 15 14 13 12 13 14 15 17 19 19 19
23 21 19 18 16 14 12 11 10 8 7 6 7 7 9 9 9 10 12 12 12 13 13 14 15 17 17 17 17 17 17 17 13 13 11 9 8 11 10 12 14 15 17
8 5 3 2 1 3 3 6 8 11 14 17 17 16 16 14 14 13 14 13 13 14 15 16 17 18 19 20 19 19 17 17 15 13 11 12 11 12 13 13 14 17 19
9 11 12 13 14 16 18 19 20 21 20 20 18 18 18 16 15 15 15 14 14 15 16 16 17 17 18 18 19 18 17 16 15 11 6 1 4 8 12 13 14 16 19
Wind_Direction_850mb
179 192 209 229 243 253 259 263 267 271 273 273 274 274 274 273 273 274 275 277 279 282 284 287 288 290 288 289 289 287 284 281 282 291 290 292 291 289 286 283 283 283 283
194 209 234 258 266 270 272 275 277 280 282 283 281 280 278 278 279 281 280 280 283 284 287 288 291 293 294 296 296 294 291 291 285 288 296 295 292 288 283 283 281 278 277
218 238 261 269 272 270 270 275 281 284 283 282 281 282 281 281 281 281 281 282 283 283 284 285 288 290 293 296 297 297 297 297 299 298 301 303 303 303 303 295 286 282 278
231 242 262 268 271 269 269 273 277 277 278 280 283 285 286 285 285 286 287 287 286 285 283 282 283 285 289 290 291 291 293 294 297 298 300 303 304 307 305 302 299 295 278
238 248 262 265 266 266 263 264 271 273 276 280 284 287 289 290 290 289 288 286 285 285 285 284 283 284 284 285 288 292 293 293 294 296 298 300 301 303 297 297 288 290 288
249 253 261 264 260 259 259 263 266 272 280 284 285 285 285 286 287 288 287 287 287 287 289 291 292 293 295 292 290 287 285 289 291 292 292 292 299 298 299 292 288 285 284
259 255 253 260 257 254 253 258 263 271 280 283 284 286 288 290 292 290 289 289 289 291 293 295 295 295 296 299 299 297 294 292 290 291 294 296 300 305 306 296 287 281 276
260 259 257 257 254 249 249 254 261 268 277 281 283 286 290 294 296 295 294 293 292 291 291 293 294 298 300 299 300 299 298 297 300 302 301 303 305 310 300 295 292 283 277
258 256 255 252 248 245 246 249 256 263 272 279 285 290 295 298 299 298 295 290 288 289 291 293 298 300 302 300 300 303 303 300 307 307 306 307 311 312 308 300 290 282 279
262 264 259 248 241 241 243 245 250 257 267 277 286 292 296 300 300 299 296 291 290 292 293 296 300 303 306 305 303 306 305 309 311 308 309 311 312 313 315 306 298 284 277
267 264 254 243 239 238 239 241 246 254 264 278 289 295 301 303 302 301 297 288 294 295 295 299 301 305 305 305 307 304 307 311 309 310 311 314 319 321 320 315 305 292 275
263 259 248 238 233 233 234 238 245 255 268 283 292 298 303 306 310 312 310 300 299 297 298 298 299 306 307 304 305 308 311 310 309 311 313 318 321 322 322 318 310 293 284
262 257 244 234 232 234 237 243 251 260 272 282 291 302 310 313 310 310 308 302 296 296 299 298 294 300 303 305 307 310 310 310 311 313 315 318 322 323 324 324 322 314 295
260 247 234 228 228 232 238 245 254 265 276 284 294 302 306 310 310 309 305 302 302 301 303 304 303 304 305 306 308 310 311 312 313 315 317 320 324 327 328 326 321 321 313
248 238 233 230 232 238 247 255 262 270 279 288 296 301 305 303 303 301 300 302 303 297 301 300 307 309 308 309 311 312 312 313 315 317 319 321 324 326 328 327 323 328 317
236 233 234 236 239 246 256 264 270 276 281 287 296 299 298 298 299 298 294 293 290 295 296 299 304 308 308 310 311 313 317 318 319 320 323 321 323 325 329 326 325 332 328
235 237 238 241 244 250 259 269 276 281 285 287 291 293 295 296 295 297 298 297 298 296 297 299 303 308 309 310 312 315 319 323 323 324 327 324 323 326 331 327 339 336 22
243 249 254 259 260 262 270 277 283 289 291 294 297 298 297 295 295 297 295 299 300 294 296 300 304 307 310 312 316 321 325 331 336 341 345 339 334 337 343 337 10 22 93
264 266 269 271 274 276 278 284 288 293 299 301 301 301 300 299 300 299 302 301 298 297 303 302 306 312 314 317 321 330 339 346 350 359 7 13 14 16 34 30 55 56 104
258 262 266 271 275 279 283 287 291 294 295 298 299 301 304 306 308 305 302 301 301 305 311 311 312 315 322 327 337 347 350 353 356 3 11 19 41 57 70 78 81 92 100
271 273 275 277 279 282 288 289 288 286 290 292 298 303 305 311 313 311 308 305 310 318 324 321 319 315 320 327 333 339 340 347 352 360 1 17 32 43 58 69 76 86 96
275 280 284 286 286 287 284 286 286 291 293 298 301 303 304 311 311 313 317 324 339 349 346 339 331 331 334 336 335 335 340 344 346 358 15 19 24 46 65 73 79 80 92
270 269 272 275 278 280 282 286 287 288 293 294 307 314 323 332 336 357 15 10 7 6 2 349 335 333 332 338 340 343 344 351 359 6 11 23 34 48 55 65 74 82 95
261 265 269 272 277 283 283 286 304 312 308 355 25 47 55 52 44 38 38 25 5 354 1 357 354 353 355 360 357 3 1 358 3 21 22 29 61 79 92 94 102 108 115
254 249 249 269 352 39 70 85 91 89 80 82 79 77 72 59 48 44 43 35 22 14 16 14 9 7 5 3 0 4 15 16 14 16 44 58 72 73 84 92 96 103 112
109 108 108 109 112 112 105 100 97 92 89 87 85 79 73 67 60 53 48 40 31 24 24 23 20 16 12 11 8 360 349 345 340 339 348 333 97 115 102 89 93 108 114